Regional Weather Roundup
Issued by NWS Upton, NY

Current Version | Previous Version | Text Only | Print | Product List | Glossary On
Versions: 1 2 3 4 5 6 7 8 9 10 11 12 13 14 15 16 17 18 19 20 21 22 23 24 25 26 27
000 ASUS41 KOKX 240905 RWROKX REGIONAL WEATHER ROUNDUP NATIONAL WEATHER SERVICE NEW YORK NY 500 AM EDT FRI OCT 24 2014 NOTE: "FAIR" INDICATES FEW OR NO CLOUDS BELOW 12,000 FEET WITH NO SIGNIFICANT WEATHER AND/OR OBSTRUCTIONS TO VISIBILITY. NYZ071-072-176-178-NJZ106-104-241000- NEW YORK CITY METRO AREA CITY SKY/WX TMP DP RH WIND PRES REMARKS CENTRAL PARK PTCLDY 51 42 71 W3 29.81S LAGUARDIA APRT CLOUDY 51 43 74 NW14 29.78R KENNEDY INTL MOCLDY 52 42 69 NW13 29.79R NEWARK/LIBERTY MOCLDY 50 43 77 W7 29.80R BRNX BOT. GARD N/A 50 41 71 W3 29.78F TETERBORO PTCLDY 51 42 71 NW8 29.79S $$ NYZ177-179-078>081-241000- LONG ISLAND NEW YORK CITY SKY/WX TMP DP RH WIND PRES REMARKS FARMINGDALE MOCLDY 52 44 74 NW10 29.76R ISLIP CLOUDY 51 46 83 NW20G28 29.72R SHIRLEY CLOUDY 51 46 83 NW13G23 29.74R WESTHAMPTON CLOUDY 53 46 77 NW14 29.73R MONTAUK POINT N/A 54 49 83 N14G22 29.69R $$ NYZ052-065-067-241000- HUDSON VALLEY CITY SKY/WX TMP DP RH WIND PRES REMARKS WHITE PLAINS MOCLDY 49 44 83 NW9 29.76S NEWBURGH NOT AVBL MONTGOMERY LGT RAIN 49 42 77 VRB5 29.78S POUGHKEEPSIE CLOUDY 49 44 83 N3 29.79R ALBANY LGT RAIN 46 44 93 NE5 29.82R $$ NJZ001-105-106-008-010-013-015-019>022-104-241000- NEW JERSEY CITY SKY/WX TMP DP RH WIND PRES REMARKS NEWARK/LIBERTY MOCLDY 50 43 77 W7 29.80R TETERBORO PTCLDY 51 42 71 NW8 29.79S CALDWELL PTCLDY 49 41 74 NW7 29.81R MORRISTOWN PTCLDY 52 43 71 NW9 29.81S SOMERVILLE CLOUDY 52 43 71 CALM 29.81R SUSSEX CLOUDY 52 42 69 N3 29.81S ANDOVER N/A 49 43 80 N7 29.82S TRENTON CLOUDY 52 44 74 NW6 29.82S MILLVILLE PTCLDY 46 43 89 CALM 29.83S ATLANTIC CITY CLEAR 46 43 89 NW6 29.82S WRIGHTSTOWN CLOUDY 51 45 80 NW10 29.81R TOMS RIVER CLOUDY 52 45 76 NW3 29.82R BELMAR MOCLDY 48 39 71 NW7 29.80R $$ PAZ047>061-062-071-241000- EASTERN PENNSYLVANIA CITY SKY/WX TMP DP RH WIND PRES REMARKS PHILADELPHIA CLOUDY 57 44 62 NW10 29.85R ALLENTOWN CLOUDY 54 43 66 NW13G20 29.85R SCRANTON CLOUDY 51 43 74 NW10 29.87S $$ CTZ002-004>006-009-010-012-RIZ004-006-007-MAZ004-011-015-241000- SOUTHERN NEW ENGLAND IN CT CITY SKY/WX TMP DP RH WIND PRES REMARKS BRADLEY INTL CLOUDY 50 44 80 NW8 29.72S HARTFORD CLOUDY 50 43 77 VRB6 29.73R DANBURY CLOUDY 49 42 77 N12G17 29.77S WTRBRY/OXFORD CLOUDY 48 39 71 N13 29.74R BRIDGEPORT MOCLDY 51 44 77 NW9 29.74R MERIDEN CLOUDY 50 43 77 NW15G21 29.73R NEW HAVEN CLOUDY 52 44 74 N9 29.72R CHESTER CLOUDY 48 45 87 N9G20 29.71R GROTON CLOUDY 50 47 89 NW12 29.68R WILLIMANTIC CLOUDY 50 45 83 N10 29.70R IN RI CITY SKY/WX TMP DP RH WIND PRES REMARKS PROVIDENCE CLOUDY 51 47 86 N13 29.67R BLOCK ISLAND CLOUDY 52 45 76 N13G20 29.67R WESTERLY CLOUDY 52 48 86 N9 29.68R IN MA CITY SKY/WX TMP DP RH WIND PRES REMARKS BOSTON CLOUDY 48 47 96 N10G20 29.67R WORCESTER LGT RAIN 46 45 96 NW12 29.69R WESTFIELD CLOUDY 49 43 80 N10 29.73S PROVINCETOWN CLOUDY 52 -2 11 N20G30 29.61R NANTUCKET LGT RAIN 53 51 93 N24G35 29.56R $$ ANZ330-335-338-340-345-350-353-355-241000- COASTAL MARINE OBSERVATIONS STATION/POSITION TIME SKY/WX TEMP WIND PRES VSBY WAVE AIR SEA DIR/SP/G HT/PER (UTC) (F) (DEG/KT/KT) (MB) (MI) (FT/S) NY HARB ENTRANCE NOT AVBL 4S FIRE IS 0900 63 N/A 3/ 8 20S FIRE ISLAND 0900 55 63 320/ 21/ 27 1006.7 6/ 5 23SW MTP 0900 N/A 5/ 4 HUDSON CANYON 0900 57 66 330/ 19/ 25 1005.9 10/ 7 EXECUTION ROCKS 0900 53 62 310/ 12/ 16 N/A WESTERN LI SOUND 0900 53 310/ 12/ 16 N/A 1/ 2 CENTRAL LI SOUND 0800 53 63 310/ 14/ 17 N/A 2/ 3 EASTERN LI SOUND 0800 54 63 340/ 16/ 17 N/A ROBBINS REEF 0900 51 300/ 14/ 16 1007.7 $$ >>>>>>>>>>>>>>>>>>>>>>>>>>>> KEY <<<<<<<<<<<<<<<<<<<<<<<<<<< > < > SKY/WX - SKY CONDITION/PRESENT WEATHER < > TMP - TEMPERATURE IN FAHRENHEIT < > DP - DEWPOINT IN FAHRENHEIT < > RH - RELATIVE HUMIDITY IN PERCENT < > WIND - DIRECTION AND SPEED IN MPH < > PRES - MEAN SEA LEVEL PRESSURE IN INCHES OF HG < > WCI - WIND CHILL INDEX < > VSB - VISIBILITY IN MILES < > HX - HEAT INDEX < > TC - TEMPERATURE IN CELSIUS < > VRB - VARIABLE WIND DIRECTION < > < >>>>>>>>>>>>>>>>>>>>>>>>>>>> KEY <<<<<<<<<<<<<<<<<<<<<<<<<<<

USA.gov is the U.S. government's official web portal to all federal, state and local government web resources and services.